#timestamp,LO_Frequency,Hit 
1495098015.9,286046902.5,N
1495098035.7,286046905.2,N
1495098055.5,286046905.2,N
1495098075.4,286046905.1,N
1495098095.2,286046902.3,N
1495098115.0,286046901.1,N
1495098115.9,286046901.1,N
1495098135.8,286046901.5,N
1495098155.6,286046903.4,N
1495098175.4,286046902.1,N
1495098195.3,286046903.6,N
1495098215.1,286046903.6,N
1495098235.8,286046899.0,N
1495098255.7,286046900.8,N
1495098275.5,286046899.4,N
1495098295.3,286046899.1,N
1495098315.2,286046899.3,N
1495098335.0,286046902.7,N
1495098335.9,286046902.7,N
1495098355.7,286046904.1,N
1495098375.6,286046904.7,N
1495098395.4,286046901.5,N
1495098415.3,286046901.7,N
1495098435.1,286046900.2,N
1495098436.0,286046900.2,N
1495098455.8,286046896.0,N
1495098475.7,286046896.1,N
1495098495.5,286046900.0,N
1495098515.3,286046898.6,N
1495098535.2,286046897.0,N
1495098555.9,286046896.1,N
1495098575.7,286046896.9,N
1495098595.6,286046895.1,N
1495098615.4,286046894.4,N
1495098635.2,286046894.5,N
1495098655.1,286046894.3,N
1495098656.0,286046894.3,N
1495098675.8,286046894.1,N
1495098695.6,286046897.2,N
1495098715.5,286046895.0,N
1495098735.3,286046894.3,N
1495098755.1,286046894.7,N
1495098775.9,286046896.9,N
1495098795.7,286046894.3,N
1495098815.5,286046895.0,N
1495098835.4,286046895.4,N
1495098855.2,286046894.4,N
1495098875.0,286046894.5,N
1495098875.9,286046894.5,N
1495098895.8,286046896.6,N
1495098915.6,286046892.7,N
1495098935.4,286046892.9,N
1495098955.3,286046894.2,N
1495098975.1,286046894.4,N
1495098995.8,286046894.4,N
1495099015.7,286046895.4,N
1495099035.5,286046895.6,N
1495099055.3,286046892.5,N
1495099075.2,286046893.1,N
1495099095.0,286046891.0,N
1495099095.9,286046891.0,N
1495099115.7,286046891.1,N
1495099135.6,286046890.9,N
1495099155.4,286046889.9,N
1495099175.2,286046889.6,N
1495099195.1,286046890.4,N
1495099196.0,286046890.4,N
1495099215.8,286046889.9,N
1495099235.7,286046891.9,N
1495099255.5,286046890.8,N
1495099275.3,286046888.2,N
1495099295.2,286046891.8,N
1495099315.9,286046892.1,N
1495099335.7,286046890.3,N
1495099355.6,286046888.1,N
1495099375.4,286046887.7,N
1495099395.2,286046891.9,N
1495099415.1,286046891.7,N
1495099416.0,286046891.7,N
1495099435.8,286046891.5,N
1495099455.6,286046891.7,N
1495099475.5,286046892.4,N
1495099495.3,286046891.2,N
1495099515.1,286046891.5,N
1495099535.9,286046893.5,N
1495099555.7,286046893.3,N
1495099575.5,286046893.9,N
1495099595.4,286046893.7,N
1495099615.2,286046891.4,N
1495099635.0,286046891.0,N
1495099635.9,286046891.0,N
1495099655.8,286046892.1,N
1495099675.6,286046892.4,N
1495099695.4,286046890.3,N
1495099715.3,286046888.9,N
1495099735.1,286046888.7,N
1495099755.9,286046888.7,N
1495099775.7,286046888.5,N
1495099795.5,286046889.2,N
1495099815.4,286046890.8,N
1495099835.2,286046887.8,N
1495099855.0,286046887.7,N
1495099855.9,286046887.7,N
1495099875.8,286046887.9,N
1495099895.6,286046890.2,N
1495099915.4,286046891.8,N
1495099935.3,286046893.9,N
1495099955.1,286046893.5,N
1495099956.0,286046893.5,N
1495099975.8,286046893.7,N
1495099995.7,286046891.2,N
1495100015.5,286046891.5,N
1495100035.3,286046891.6,N
1495100055.2,286046894.7,N
1495100075.0,286046893.3,N
1495100075.9,286046893.3,N
1495100095.7,286046891.3,N
1495100115.6,286046891.6,N
1495100135.4,286046891.9,N
1495100155.2,286046888.1,N
1495100175.1,286046886.7,N
1495100176.0,286046886.7,N
1495100195.8,286046888.3,N
1495100215.6,286046889.0,N
1495100235.5,286046890.4,N
1495100255.3,286046890.8,N
1495100275.1,286046890.0,N
1495100295.9,286046890.6,N
1495100315.7,286046888.6,N
1495100335.6,286046887.2,N
1495100355.4,286046887.3,N
1495100375.2,286046887.3,N
1495100395.1,286046886.7,N
1495100396.0,286046886.7,N
1495100415.8,286046886.3,N
1495100435.6,286046888.0,N
1495100455.5,286046888.7,N
1495100475.3,286046888.3,N
1495100495.1,286046888.8,N
1495100515.9,286046884.9,N
1495100535.7,286046887.4,N
1495100555.5,286046886.9,N
1495100575.4,286046887.9,N
1495100595.2,286046888.4,N
1495100615.0,286046890.6,N
1495100615.9,286046890.6,N
1495100635.8,286046889.1,N
1495100655.6,286046887.3,N
1495100675.4,286046888.0,N
1495100695.3,286046890.7,N
1495100715.1,286046887.8,N
1495100735.8,286046887.8,N
1495100755.7,286046889.6,N
1495100775.5,286046892.2,N
1495100795.3,286046891.0,N
1495100815.2,286046892.4,N
1495100835.0,286046889.3,N
1495100835.9,286046889.3,N
1495100855.8,286046887.8,N
1495100875.6,286046887.7,N
1495100895.4,286046888.1,N
1495100915.3,286046888.5,N
1495100935.1,286046888.7,N
1495100936.0,286046888.7,N
1495100955.8,286046887.9,N
1495100975.7,286046892.0,N
1495100995.5,286046891.3,N
1495101015.3,286046891.7,N
1495101035.2,286046890.7,N
1495101055.9,286046886.2,N
1495101075.7,286046886.9,N
1495101095.6,286046886.5,N
1495101115.4,286046888.6,N
1495101135.2,286046890.8,N
1495101155.1,286046889.6,N
1495101156.0,286046889.6,N
1495101175.8,286046888.7,N
1495101195.6,286046887.1,N
1495101215.5,286046887.1,N
                           